[[{"header":{"parameterUnit":"m.s-1","parameterCategory":1,"la1":30.2991,"la2":30.254,"lo1":-89.0895,"lo2":-89.0444,"dy":0.0017,"dx":0.0017,"nx":28,"ny":28,"refTime":"2023-11-01T03:00:00:Z","depth":0,"parameterNumber":2,"parameterNumberName":"U-component_of_WINDS"},"data":[0,0,0,0,0,0,0,0,0,0,0,0,0,0,0,0,0,0,0,0,0,0,0,0,0,0,0,0,0,0,0,0,0,0,0,0,0,0,0,0,0,0,0,0,0,0,0,0,0,0,0,0,0,0,0,0,0,0,-5.5115,-5.5116,0,-5.5244,-5.5246,-5.5247,-5.5067,-5.506,-5.5054,-5.5048,-5.5184,-5.5193,-5.5203,0,0,0,0,0,0,0,0,0,0,0,0,0,-5.4714,-5.4722,-5.5115,-5.5116,-5.5118,-5.5244,-5.5246,-5.5248,-5.5068,-5.506,-5.5052,-5.5045,-5.5181,-5.5192,-5.5204,0,0,0,0,0,0,0,0,0,0,0,0,0,-5.487,-5.4725,-5.5114,-5.5043,-5.5038,-5.5244,-5.5246,-5.5248,-5.507,-5.506,-5.505,-5.5041,-5.5177,-5.5191,-5.5205,-5.5487,0,0,-5.5249,-5.5256,0,0,0,0,0,0,0,0,-5.4862,-5.4885,-5.5052,-5.5049,-5.5043,-5.5129,-5.5154,-5.5328,-5.5072,-5.5058,-5.5048,-5.5036,-5.5174,-5.5188,-5.5233,-5.5494,-5.55,-5.5251,-5.5259,-5.5265,-5.527,0,0,0,0,0,0,0,-5.4851,-5.4879,-5.5166,-5.5055,-5.5049,-5.5006,-5.5017,-5.5186,-5.5168,-5.5058,-5.5045,-5.5063,-5.5169,-5.522,-5.5235,-5.5502,-5.525,-5.5263,-5.5272,-5.5277,-5.5999,-5.6009,0,0,0,0,0,0,-5.4848,-5.4871,-5.5162,-5.517,-5.4927,-5.5021,-5.5034,-5.5112,-5.5166,-5.5165,-5.5071,-5.5054,-5.52,-5.5219,-5.5239,-5.5573,-5.5265,-5.5279,-5.5287,-5.5989,-5.6002,-5.6013,0,0,0,0,0,0,-5.484,-5.4876,-5.5156,-5.5017,-5.5049,-5.5038,-5.5127,-5.5119,-5.5169,-5.5176,-5.5172,-5.5126,-5.5193,-5.5219,-5.5427,-5.5575,-5.5285,-5.5299,-5.5976,-5.5993,-5.6007,-5.6242,0,0,0,0,0,0,-5.483,-5.4874,-5.4981,-5.5021,-5.5057,-5.5342,-5.5136,-5.5129,-5.5194,-5.5173,-5.5226,-5.5226,-5.5188,-5.5406,-5.5441,-5.5589,-5.531,-5.5963,-5.5984,-5.6002,-5.6221,-5.6264,-5.6301,0,0,0,0,0,-5.4816,-5.5043,-5.4987,-5.5023,-5.519,-5.5351,-5.5372,-5.5322,-5.5207,-5.5314,-5.5318,-5.5224,-5.5553,-5.5429,-5.5467,-5.5622,-5.5953,-5.5978,-5.6001,-5.6203,-5.6256,-5.63,0,0,0,0,0,0,-5.5022,-5.5046,-5.4985,-5.5231,-5.529,-5.532,-5.5453,-5.5379,-5.5473,-5.5449,-5.5385,-5.5399,-5.5621,-5.5642,-5.5503,-5.5897,-5.5734,-5.5767,-5.5875,-5.5925,-5.5964,-5.5954,-5.5322,0,0,0,0,0,-5.5095,-5.5223,-5.5238,-5.5454,-5.5486,-5.5466,-5.5533,-5.549,-5.5549,-5.5573,-5.5592,-5.5654,-5.577,-5.5849,-5.5957,-5.6224,-5.6232,-5.6349,-5.6389,-5.6421,-5.645,-5.6592,-5.6644,-5.6091,-5.609,-5.609,0,0,-5.525,-5.5279,-5.5364,-5.5496,-5.5536,-5.567,-5.5488,-5.5637,-5.5736,-5.5596,-5.5792,-5.5809,-5.5873,-5.6112,-5.6218,-5.6136,-5.6605,-5.6452,-5.6478,-5.6488,-5.6622,-5.6674,-5.6721,-5.6107,-5.6104,-5.6101,0,0,-5.5599,-5.5634,-5.5817,-5.5861,-5.5924,-5.5909,-5.5953,-5.5994,-5.6,-5.6196,-5.6093,-5.6211,-5.6414,-5.6463,-5.6515,-5.6884,-5.68,-5.6921,-5.7129,-5.7268,-5.7312,-5.735,-5.7481,-5.7529,-5.6949,-5.695,-5.695,0,-5.5783,-5.5979,-5.5921,-5.6078,-5.6139,-5.6017,-5.6203,-5.6249,-5.6345,-5.639,-5.6297,-5.6549,-5.6584,-5.6832,-5.6922,-5.6968,-5.7017,-5.6914,-5.731,-5.7348,-5.7383,-5.7507,-5.7556,-5.6964,-5.6963,-5.6961,-5.696,0,-5.6202,-5.634,-5.6481,-5.6575,-5.6652,-5.6823,-5.6791,-5.6876,-5.6827,-5.6822,-5.7023,-5.706,-5.7174,-5.7229,-5.7183,-5.7472,-5.7419,-5.732,-5.7154,-5.7451,-5.7566,-5.7613,-5.6985,-5.6979,-5.6975,-5.6972,0,0,-5.6684,-5.6744,-5.6796,-5.6837,-5.6898,-5.7004,-5.7169,-5.7279,-5.7353,-5.7424,-5.7561,-5.7735,-5.7643,-5.7703,-5.7661,-5.7783,-5.8072,-5.7668,-5.7669,-5.7742,-5.8392,-5.8466,-5.8522,-5.8017,-5.8026,-5.8033,-5.8386,0,-5.7032,-5.7316,-5.7269,-5.7544,-5.7671,-5.7558,-5.7701,-5.7755,-5.7755,-5.7863,-5.7862,-5.7987,-5.7857,-5.7891,-5.8008,-5.8013,-5.8202,-5.7987,-5.8145,-5.8151,-5.8132,-5.8582,-5.8661,-5.8993,-5.8431,-5.8439,-5.8445,0,-5.7476,-5.7561,-5.785,-5.789,-5.7941,-5.8071,-5.8168,-5.8272,-5.8331,-5.8322,-5.8389,-5.8324,-5.8489,-5.8322,-5.8549,-5.8404,-5.8466,-5.8478,-5.849,-5.8502,-5.8315,-5.8607,-5.9097,-5.9147,-5.8515,-5.851,-5.8504,0,-5.7798,-5.7986,-5.8182,-5.8221,-5.8273,-5.8367,-5.8393,-5.8441,-5.851,-5.8595,-5.8639,-5.8743,-5.88,-5.8883,-5.8848,-5.873,-5.9083,-5.8912,-5.908,-5.9081,-5.9159,-5.9154,-5.9666,-5.9201,-5.92,-5.9199,-5.9198,0,-5.8191,-5.8372,-5.8327,-5.8448,-5.8647,-5.8591,-5.879,-5.8803,-5.8847,-5.8969,-5.8878,-5.8995,-5.8942,-5.9056,-5.903,-5.9222,-5.9249,-5.9246,-5.9237,-5.9254,-5.9255,-5.9294,-5.927,-5.9212,-5.9209,-5.9207,-5.9204,0,-5.8584,-5.8561,-5.8768,-5.88,-5.8812,-5.8958,-5.8985,-5.9099,-5.9091,-5.9247,-5.928,-5.9269,-5.9398,-5.9372,-5.9514,-5.9496,-5.9737,-5.97,-5.9717,-5.9708,-5.9877,-5.9862,-6.0431,-6.0503,-5.9992,-5.9997,-6.0001,0,-5.8836,-5.8972,-5.9019,-5.9093,-5.9126,-5.9248,-5.9317,-5.9268,-5.9344,-5.9421,-5.9526,-5.9646,-5.9739,-5.995,-5.9955,-6.0064,-6.0028,-6.022,-6.0043,-6.0056,-6.003,-6.0022,-6.0035,-6.0255,-6.0261,-6.0266,-6.0269,0,-5.9286,-5.9268,-5.937,-5.9471,-5.9556,-5.9633,-5.97,-5.9767,-5.9723,-5.9814,-5.9943,-6.0016,-6.016,-6.0281,-6.0381,-6.0409,-6.0334,-6.0325,-6.0369,-6.0388,-6.0392,-6.0391,-5.9812,-6.0312,-6.0308,-6.0305,-6.0302,-6.0301,-5.9615,-5.9731,-5.9781,-5.9899,-5.9945,-6.0011,-6.0118,-6.0124,-6.0231,-6.0344,-6.0308,-6.0456,-6.0511,-6.0638,-6.0678,-6.0793,-6.0721,-6.0786,-6.0802,-6.0819,-6.0839,-6.0374,-6.0811,-6.081,-6.0809,-6.0808,-6.0807,0,-6.0059,-6.0086,-6.0195,-6.0292,-6.0386,-6.0305,-6.0376,-6.0459,-6.059,-6.0647,-6.0741,-6.089,-6.1007,-6.1021,-6.1132,-6.1221,-6.119,-6.1252,-6.1245,-6.1252,-6.0897,-6.0847,-6.1276,-6.1276,-6.1276,-6.1276,-6.1276,-6.1276,-6.0301,-6.0492,-6.048,-6.0693,-6.0718,-6.0861,-6.0909,-6.0969,-6.1014,-6.1184,-6.128,-6.1289,-6.1329,-6.1442,-6.1546,-6.1547,-6.1592,-6.1668,-6.1656,-6.1324,-6.1277,-6.1233,-6.1185,-6.1678,-6.1679,-6.2001,-6.2004,-6.2006]},{"header":{"parameterUnit":"m.s-1","parameterCategory":1,"la1":30.2991,"la2":30.254,"lo1":-89.0895,"lo2":-89.0444,"dy":0.0017,"dx":0.0017,"nx":28,"ny":28,"refTime":"2023-11-01T03:00:00:Z","depth":0,"parameterNumber":3,"parameterNumberName":"V-component_of_WINDS"},"data":[0,0,0,0,0,0,0,0,0,0,0,0,0,0,0,0,0,0,0,0,0,0,0,0,0,0,0,0,0,0,0,0,0,0,0,0,0,0,0,0,0,0,0,0,0,0,0,0,0,0,0,0,0,0,0,0,0,0,-2.9128,-2.9128,0,-2.9137,-2.9137,-2.9137,-2.914,-2.914,-2.914,-2.914,-2.9147,-2.9147,-2.9147,0,0,0,0,0,0,0,0,0,0,0,0,0,-2.9109,-2.9109,-2.9128,-2.9128,-2.9128,-2.9137,-2.9137,-2.9137,-2.914,-2.914,-2.914,-2.914,-2.9147,-2.9147,-2.9147,0,0,0,0,0,0,0,0,0,0,0,0,0,-2.9117,-2.9109,-2.9128,-2.9131,-2.9131,-2.9137,-2.9137,-2.9137,-2.914,-2.914,-2.914,-2.914,-2.9147,-2.9147,-2.9147,-2.915,0,0,-2.9148,-2.9148,0,0,0,0,0,0,0,0,-2.9117,-2.9118,-2.913,-2.9131,-2.9131,-2.9137,-2.9133,-2.9141,-2.914,-2.9137,-2.914,-2.914,-2.9144,-2.9144,-2.9146,-2.915,-2.915,-2.9148,-2.9148,-2.9149,-2.9149,0,0,0,0,0,0,0,-2.9116,-2.9118,-2.9131,-2.913,-2.9131,-2.913,-2.9131,-2.9134,-2.914,-2.9137,-2.9137,-2.9138,-2.9144,-2.9145,-2.9146,-2.915,-2.9148,-2.9148,-2.9149,-2.9149,-2.9153,-2.9153,0,0,0,0,0,0,-2.9116,-2.9117,-2.9131,-2.9131,-2.9124,-2.913,-2.9132,-2.9135,-2.914,-2.9141,-2.9138,-2.9139,-2.9145,-2.9146,-2.9146,-2.9147,-2.9149,-2.9149,-2.9149,-2.9153,-2.9153,-2.9153,0,0,0,0,0,0,-2.9115,-2.9117,-2.9131,-2.9124,-2.9126,-2.9131,-2.9135,-2.9135,-2.9137,-2.9141,-2.9142,-2.9139,-2.9145,-2.9146,-2.9148,-2.9148,-2.9149,-2.9149,-2.9153,-2.9153,-2.9153,-2.9151,0,0,0,0,0,0,-2.9115,-2.9117,-2.9119,-2.9124,-2.9126,-2.9134,-2.9135,-2.9136,-2.9138,-2.9138,-2.9142,-2.9143,-2.9145,-2.9148,-2.9148,-2.9148,-2.9149,-2.9153,-2.9153,-2.9153,-2.9151,-2.915,-2.915,0,0,0,0,0,-2.9114,-2.9118,-2.9119,-2.9121,-2.913,-2.9134,-2.9135,-2.9138,-2.9138,-2.9139,-2.9141,-2.9143,-2.9148,-2.9148,-2.9149,-2.9148,-2.9154,-2.9153,-2.9153,-2.9151,-2.915,-2.915,0,0,0,0,0,0,-2.9113,-2.9119,-2.912,-2.9127,-2.913,-2.9134,-2.9137,-2.9138,-2.9141,-2.9141,-2.9143,-2.9144,-2.9146,-2.9147,-2.9148,-2.9149,-2.915,-2.915,-2.9148,-2.9148,-2.9148,-2.9147,-2.915,0,0,0,0,0,-2.9113,-2.9117,-2.9122,-2.9127,-2.9128,-2.9132,-2.9134,-2.9136,-2.9139,-2.914,-2.9142,-2.9144,-2.9146,-2.9147,-2.9149,-2.9151,-2.915,-2.9151,-2.915,-2.915,-2.915,-2.9148,-2.9148,-2.9153,-2.9153,-2.9153,0,0,-2.9114,-2.9118,-2.912,-2.9127,-2.9129,-2.9132,-2.9133,-2.9137,-2.9138,-2.914,-2.9143,-2.9144,-2.9146,-2.9147,-2.9148,-2.9149,-2.9148,-2.915,-2.915,-2.915,-2.9148,-2.9147,-2.9147,-2.9153,-2.9153,-2.9153,0,0,-2.9117,-2.9121,-2.9124,-2.9126,-2.913,-2.9132,-2.9133,-2.9137,-2.9138,-2.914,-2.9141,-2.9142,-2.9145,-2.9146,-2.9147,-2.9146,-2.9146,-2.9146,-2.9145,-2.9143,-2.9142,-2.9142,-2.914,-2.9139,-2.9146,-2.9146,-2.9146,0,-2.9117,-2.9122,-2.9126,-2.9128,-2.913,-2.9132,-2.9134,-2.9135,-2.9139,-2.9139,-2.914,-2.9143,-2.9144,-2.9145,-2.9144,-2.9145,-2.9144,-2.9146,-2.9142,-2.9142,-2.9142,-2.914,-2.9139,-2.9146,-2.9146,-2.9146,-2.9146,0,-2.9121,-2.9124,-2.9126,-2.913,-2.9131,-2.9134,-2.9136,-2.9136,-2.9137,-2.9138,-2.9139,-2.9141,-2.9142,-2.9142,-2.9143,-2.9141,-2.9141,-2.9142,-2.9143,-2.9141,-2.9139,-2.9138,-2.9146,-2.9146,-2.9146,-2.9146,0,0,-2.9125,-2.9128,-2.9129,-2.9129,-2.9132,-2.9134,-2.9135,-2.9136,-2.9136,-2.9137,-2.9137,-2.9138,-2.9138,-2.9139,-2.914,-2.9138,-2.9135,-2.9139,-2.9139,-2.9137,-2.913,-2.9129,-2.9128,-2.9135,-2.9135,-2.9135,-2.9129,0,-2.9127,-2.913,-2.9132,-2.9133,-2.9134,-2.9135,-2.9135,-2.9136,-2.9136,-2.9136,-2.9136,-2.9136,-2.9137,-2.9137,-2.9136,-2.9136,-2.9133,-2.9136,-2.9133,-2.9133,-2.9132,-2.9127,-2.9126,-2.9121,-2.9129,-2.9129,-2.9129,0,-2.9131,-2.9132,-2.9133,-2.9133,-2.9134,-2.9134,-2.9134,-2.9134,-2.9134,-2.9134,-2.9133,-2.9134,-2.9132,-2.9133,-2.913,-2.9132,-2.9131,-2.913,-2.913,-2.9129,-2.913,-2.9125,-2.912,-2.9119,-2.9128,-2.9128,-2.9128,0,-2.9131,-2.9133,-2.9133,-2.9134,-2.9134,-2.9134,-2.9134,-2.9134,-2.9133,-2.9132,-2.9132,-2.913,-2.913,-2.9128,-2.9127,-2.9128,-2.9123,-2.9125,-2.9121,-2.9121,-2.912,-2.912,-2.9113,-2.9121,-2.9121,-2.9121,-2.9121,0,-2.9132,-2.9133,-2.9133,-2.9133,-2.9133,-2.9133,-2.9132,-2.9132,-2.9131,-2.913,-2.913,-2.9129,-2.9128,-2.9126,-2.9125,-2.9121,-2.9121,-2.9119,-2.9119,-2.9119,-2.9119,-2.9118,-2.9118,-2.912,-2.9121,-2.9121,-2.9121,0,-2.9133,-2.9134,-2.9134,-2.9133,-2.9133,-2.9132,-2.9131,-2.913,-2.913,-2.9128,-2.9127,-2.9126,-2.9123,-2.9122,-2.9119,-2.9118,-2.9113,-2.9113,-2.9113,-2.9113,-2.9109,-2.9109,-2.9101,-2.9099,-2.9108,-2.9108,-2.9108,0,-2.9134,-2.9134,-2.9133,-2.9132,-2.9132,-2.9131,-2.913,-2.913,-2.9129,-2.9126,-2.9125,-2.9122,-2.912,-2.9114,-2.9112,-2.9109,-2.9108,-2.9106,-2.9108,-2.9107,-2.9106,-2.9106,-2.9105,-2.9105,-2.9105,-2.9105,-2.9105,0,-2.9134,-2.9134,-2.9133,-2.9131,-2.913,-2.9129,-2.9128,-2.9127,-2.9125,-2.9124,-2.912,-2.9118,-2.9114,-2.911,-2.9106,-2.9104,-2.9103,-2.9104,-2.9103,-2.9102,-2.9102,-2.91,-2.9111,-2.9104,-2.9104,-2.9104,-2.9104,-2.9104,-2.9134,-2.9133,-2.9132,-2.913,-2.9128,-2.9126,-2.9125,-2.9123,-2.9121,-2.9117,-2.9117,-2.9113,-2.9109,-2.9104,-2.9101,-2.9097,-2.9098,-2.9096,-2.9096,-2.9095,-2.9094,-2.9103,-2.9096,-2.9097,-2.9097,-2.9097,-2.9097,0,-2.9133,-2.9132,-2.913,-2.9127,-2.9125,-2.9125,-2.9122,-2.912,-2.9117,-2.9114,-2.9111,-2.9106,-2.9101,-2.9098,-2.9093,-2.909,-2.9089,-2.9089,-2.9088,-2.9088,-2.9095,-2.9096,-2.9089,-2.9089,-2.9089,-2.9089,-2.9089,-2.9089,-2.9133,-2.913,-2.9129,-2.9125,-2.9123,-2.9119,-2.9117,-2.9114,-2.9112,-2.9106,-2.9103,-2.91,-2.9096,-2.9091,-2.9086,-2.9085,-2.9082,-2.9081,-2.908,-2.9087,-2.9087,-2.9088,-2.9089,-2.9081,-2.9081,-2.9073,-2.9073,-2.9073]}]]